CW6490 Weather Reports


Display with metric or nautical units.
time (UTC)temp
F
wind
direction
speed
MPH
gust
MPH
rain 1hr
in
rain 24hr
in
rain mn
in
humidity
%
barometer
mb
20260902203820 102 303 2.0 8.0 0.00 0.00 0.00 30 1013.0
20260902202835 102 303 1.0 6.0 0.00 0.00 0.00 30 1013.2
20260902201847 103 303 4.0 9.0 0.00 0.00 0.00 28 1013.4
20260902200818 102 303 2.0 6.0 0.00 0.00 0.00 29 1013.6
20260902195815 104 303 2.0 6.0 0.00 0.00 0.00 28 1013.8
20260902194849 102 303 1.0 5.0 0.00 0.00 0.00 30 1014.0
20260902193842 103 303 2.0 4.0 0.00 0.00 0.00 29 1014.0
20260902192814 103 303 2.0 5.0 0.00 0.00 0.00 29 1014.2
20260902191849 102 303 2.0 6.0 0.00 0.00 0.00 29 1014.3
20260902190821 102 303 3.0 5.0 0.00 0.00 0.00 29 1014.5
20260902185816 100 303 1.0 5.0 0.00 0.00 0.00 31 1014.6
20260902184828 99 303 3.0 8.0 0.00 0.00 0.00 32 1014.8
20260902183842 99 303 4.0 8.0 0.00 0.00 0.00 31 1014.9
20260902182813 100 303 1.0 4.0 0.00 0.00 0.00 35 1015.0
20260902181845 99 303 3.0 5.0 0.00 0.00 0.00 32 1015.2
20260902180835 98 303 2.0 6.0 0.00 0.00 0.00 35 1015.2
20260902175847 98 303 3.0 9.0 0.00 0.00 0.00 33 1015.4
20260902174843 98 303 3.0 8.0 0.00 0.00 0.00 33 1015.3
20260902173816 97 303 2.0 5.0 0.00 0.00 0.00 37 1015.4
20260902172832 98 303 1.0 5.0 0.00 0.00 0.00 36 1015.4
20260902171826 97 303 2.0 5.0 0.00 0.00 0.00 35 1015.4
20260902170818 97 303 3.0 5.0 0.00 0.00 0.00 37 1015.5
20260902165814 96 303 1.0 6.0 0.00 0.00 0.00 39 1015.5
20260902164827 97 303 2.0 4.0 0.00 0.00 0.00 39 1015.4
20260902163821 96 303 1.0 3.0 0.00 0.00 0.00 43 1015.5
20260902162813 96 303 2.0 4.0 0.00 0.00 0.00 44 1015.5
20260902161826 95 303 0.0 4.0 0.00 0.00 0.00 47 1015.5
20260902160823 95 303 0.0 3.0 0.00 0.00 0.00 47 1015.4
20260902155837 94 303 1.0 4.0 0.00 0.00 0.00 48 1015.4
20260902154828 94 303 1.0 3.0 0.00 0.00 0.00 49 1015.4
20260902153819 93 303 1.0 3.0 0.00 0.00 0.00 49 1015.4
20260902152832 93 303 1.0 3.0 0.00 0.00 0.00 50 1015.3
20260902151827 93 303 1.0 4.0 0.00 0.00 0.00 50 1015.2
20260902150839 93 303 1.0 2.0 0.00 0.00 0.00 51 1015.2
20260902145852 92 303 0.0 2.0 0.00 0.00 0.00 53 1015.2
20260902144826 91 303 0.0 2.0 0.00 0.00 0.00 54 1015.3
20260902143818 89 303 0.0 1.0 0.00 0.00 0.00 56 1015.2
20260902142813 88 303 0.0 3.0 0.00 0.00 0.00 57 1015.2
20260902141851 87 303 0.0 1.0 0.00 0.00 0.00 58 1015.1
20260902140823 86 303 0.0 2.0 0.00 0.00 0.00 61 1015.0
20260902135815 85 303 0.0 1.0 0.00 0.00 0.00 63 1014.8
20260902134830 83 303 0.0 0.0 0.00 0.00 0.00 65 1014.6
20260902133822 82 303 0.0 1.0 0.00 0.00 0.00 66 1014.5
20260902132821 82 303 0.0 1.0 0.00 0.00 0.00 65 1014.4
20260902131814 82 303 0.0 2.0 0.00 0.00 0.00 65 1014.2
20260902130826 82 303 0.0 2.0 0.00 0.00 0.00 65 1014.2
20260902125839 83 303 0.0 3.0 0.00 0.00 0.00 64 1014.2
20260902124832 83 303 1.0 3.0 0.00 0.00 0.00 64 1014.1
20260902123829 83 303 1.0 2.0 0.00 0.00 0.00 64 1014.0
20260902122821 83 303 1.0 2.0 0.00 0.00 0.00 63 1013.9
20260902121813 83 303 1.0 3.0 0.00 0.00 0.00 63 1013.8
20260902120827 83 303 1.0 3.0 0.00 0.00 0.00 62 1013.7
20260902115820 83 303 1.0 3.0 0.00 0.00 0.00 62 1013.6
20260902114817 84 303 2.0 3.0 0.00 0.00 0.00 62 1013.6
20260902113831 84 303 1.0 3.0 0.00 0.00 0.00 62 1013.7
20260902112823 84 303 1.0 3.0 0.00 0.00 0.00 61 1013.7
20260902111817 84 303 0.0 3.0 0.00 0.00 0.00 61 1013.6
20260902110831 84 303 0.0 2.0 0.00 0.00 0.00 61 1013.6
20260902105827 84 303 1.0 2.0 0.00 0.00 0.00 61 1013.4
20260902104820 84 303 2.0 3.0 0.00 0.00 0.00 61 1013.5
20260902103814 84 303 1.0 2.0 0.00 0.00 0.00 62 1013.5
20260902102824 84 303 0.0 1.0 0.00 0.00 0.00 62 1013.6
20260902101818 84 303 0.0 0.0 0.00 0.00 0.00 61 1013.6
20260902100816 84 303 0.0 1.0 0.00 0.00 0.00 61 1013.6
20260902095828 84 303 0.0 0.0 0.00 0.00 0.00 58 1013.5
20260902094822 85 303 0.0 1.0 0.00 0.00 0.00 57 1013.4
20260902093814 85 303 0.0 0.0 0.00 0.00 0.00 57 1013.4
20260902092827 85 303 0.0 0.0 0.00 0.00 0.00 57 1013.4
20260902091824 85 303 0.0 0.0 0.00 0.00 0.00 56 1013.4
20260902090819 85 303 0.0 0.0 0.00 0.00 0.00 56 1013.4
20260902085836 86 303 0.0 0.0 0.00 0.00 0.00 56 1013.4
20260902084828 86 303 0.0 1.0 0.00 0.00 0.00 55 1013.4
20260902083841 87 303 0.0 1.0 0.00 0.00 0.00 56 1013.5
20260902082817 87 303 0.0 1.0 0.00 0.00 0.00 55 1013.6
20260902081831 87 303 0.0 0.0 0.00 0.00 0.00 54 1013.6
20260902080825 87 303 0.0 1.0 0.00 0.00 0.00 54 1013.5
20260902075820 88 303 0.0 0.0 0.00 0.00 0.00 53 1013.5
20260902074832 88 303 0.0 0.0 0.00 0.00 0.00 53 1013.5
20260902073829 88 303 0.0 0.0 0.00 0.00 0.00 53 1013.4
20260902072822 88 303 0.0 1.0 0.00 0.00 0.00 52 1013.2
20260902071814 88 303 0.0 1.0 0.00 0.00 0.00 52 1013.2
20260902070846 88 303 0.0 0.0 0.00 0.00 0.00 53 1013.1
20260902065818 88 303 0.0 0.0 0.00 0.00 0.00 52 1013.0
20260902064816 88 303 0.0 0.0 0.00 0.00 0.00 51 1013.1
20260902063852 89 303 0.0 0.0 0.00 0.00 0.00 51 1013.0
20260902062821 89 303 0.0 0.0 0.00 0.00 0.00 50 1012.9
20260902061853 89 303 0.0 0.0 0.00 0.00 0.00 50 1013.1
20260902060825 89 303 0.0 0.0 0.00 0.00 0.00 49 1013.1
20260902055819 89 303 0.0 0.0 0.00 0.00 0.00 50 1013.1
20260902054831 89 303 0.0 1.0 0.00 0.00 0.00 50 1013.2
20260902053829 89 303 0.0 1.0 0.00 0.00 0.00 49 1013.2
20260902052823 89 303 0.0 1.0 0.00 0.00 0.00 49 1013.2
20260902051814 88 303 1.0 1.0 0.00 0.00 0.00 49 1013.2
20260902050827 89 303 0.0 0.0 0.00 0.00 0.00 48 1013.1
20260902045820 89 303 0.0 0.0 0.00 0.00 0.00 47 1013.0
20260902044836 89 303 0.0 0.0 0.00 0.00 0.00 46 1013.0
20260902043828 90 303 0.0 0.0 0.00 0.00 0.00 46 1012.9
20260902042821 90 303 0.0 0.0 0.00 0.00 0.00 45 1012.8
20260902041815 90 303 0.0 0.0 0.00 0.00 0.00 43 1012.8
20260902040830 90 303 0.0 0.0 0.00 0.00 0.00 43 1012.7
20260902035826 91 303 0.0 0.0 0.00 0.00 0.00 43 1012.6
20260902034820 91 303 0.0 0.0 0.00 0.00 0.00 43 1012.5
20260902033832 91 303 0.0 0.0 0.00 0.00 0.00 42 1012.2
20260902032824 91 303 0.0 0.0 0.00 0.00 0.00 41 1012.1
20260902031818 91 303 0.0 1.0 0.00 0.00 0.00 42 1011.9
20260902030835 92 303 0.0 0.0 0.00 0.00 0.00 41 1011.7
20260902025829 92 303 0.0 0.0 0.00 0.00 0.00 41 1011.5
20260902024823 92 303 0.0 0.0 0.00 0.00 0.00 39 1011.4
20260902023815 93 303 0.0 0.0 0.00 0.00 0.00 40 1011.4
20260902022827 93 303 0.0 0.0 0.00 0.00 0.00 39 1011.3
20260902021822 94 303 0.0 0.0 0.00 0.00 0.00 38 1011.2
20260902020815 95 303 0.0 0.0 0.00 0.00 0.00 38 1011.1
20260902015847 95 303 0.0 0.0 0.00 0.00 0.00 36 1011.1
20260902014819 96 303 0.0 1.0 0.00 0.00 0.00 35 1010.9
20260902013830 97 303 0.0 1.0 0.00 0.00 0.00 34 1010.9
20260902012823 98 303 0.0 2.0 0.00 0.00 0.00 34 1011.0
20260902011819 98 303 0.0 1.0 0.00 0.00 0.00 33 1011.1
20260902010833 99 303 0.0 2.0 0.00 0.00 0.00 34 1011.1
20260902005825 100 303 1.0 2.0 0.00 0.00 0.00 33 1011.3
20260902004817 101 303 0.0 1.0 0.00 0.00 0.00 33 1011.3
20260902003830 101 303 0.0 3.0 0.00 0.00 0.00 33 1011.4
20260902002829 101 303 1.0 3.0 0.00 0.00 0.00 33 1011.5
20260902001823 101 303 1.0 4.0 0.00 0.00 0.00 33 1011.6
20260902000816 101 303 1.0 3.0 0.00 0.00 0.00 34 1011.6
20260901235831 101 303 1.0 3.0 0.00 0.00 0.00 34 1011.7
20260901234824 101 303 1.0 4.0 0.00 0.00 0.00 33 1011.7
20260901233843 101 303 0.0 6.0 0.00 0.00 0.00 35 1011.7
20260901232815 101 303 1.0 5.0 0.00 0.00 0.00 34 1011.8
20260901231828 101 303 3.0 6.0 0.00 0.00 0.00 33 1011.9
20260901230820 101 303 3.0 6.0 0.00 0.00 0.00 33 1012.0
20260901225853 101 303 2.0 5.0 0.00 0.00 0.00 36 1012.1
20260901224828 101 303 1.0 4.0 0.00 0.00 0.00 35 1012.1
20260901223821 102 303 1.0 4.0 0.00 0.00 0.00 36 1012.2
20260901222814 101 303 2.0 4.0 0.00 0.00 0.00 35 1012.3
20260901221826 102 303 1.0 3.0 0.00 0.00 0.00 36 1012.5
20260901220840 99 303 0.0 3.0 0.00 0.00 0.00 38 1012.6
20260901215816 101 303 2.0 4.0 0.00 0.00 0.00 37 1012.6
20260901214829 101 303 2.0 4.0 0.00 0.00 0.00 36 1012.7
20260901213844 101 303 2.0 5.0 0.00 0.00 0.00 35 1012.8
20260901212833 101 303 1.0 5.0 0.00 0.00 0.00 37 1013.1
20260901211827 100 303 2.0 5.0 0.00 0.00 0.00 39 1013.3
20260901210816 100 303 1.0 4.0 0.00 0.00 0.00 38 1013.5
20260901205851 100 303 1.0 3.0 0.00 0.00 0.00 39 1013.7
20260901204846 100 303 1.0 4.0 0.00 0.00 0.00 39 1013.8